Погода Мыс Шведский

Погода Мыс Шведский : погода сейчас, прогноз погоды и архив. Всё, что Вы хотите узнать о погоде Мыс Шведский!

Хотите узнать прогноз погоды Мыс Шведский? Тогда Вам сюда: Погода Мыс Шведский

Поиск расширенной информации на нашем сайте:

Другие новости

Новости СМИ2

Главная страница сайта

Новости сайта

03.07.2017

Напоминаем, что на нашем специализированном сайте Метеоцентр.Азия вы можете получить высокодетализированные автоматические прогнозы погоды по пунктам России, СНГ и мира в авиационном формате (включающие направление и скорость ветра, видимость, явления погоды, количество и форму облачности, нижнюю и верхнюю границу облачности).

Рекомендуем: Радуга бисера кроше наборы для вышивания бисером иконы.

Погода Мыс Шведский - сегодня

Время (UTC), дата Ветер
(°,м/с) 
Видим.   Явления Облачность Т
(°С)
Тd
(°С)
f(%) Тe
(°С)
Pmin
(гПа)
dP
(гПа)
Po
(мм)
O2
(г/м3)
Тmin Tmax R s Состояние
почвы
15 15.10.17 100 (В) 8-12{13}  10 км    10/10 600 м 
[Sc]
-2.4 -4 89 -7  1020.3  0.4  765  311    +0.6       
18 15.10.17 110 (В) 6-12{13}  10 км    10/10 600 м 
[Sc]
-2.4 -5.2 81 -6  1020.4  0.1  765  311           
21 15.10.17 130 (ЮВ) 4{12}  10 км    8/8 600 м 
[Sc]
-4.7 -6 91 -8  1020.6  0.2  765  314           
00 16.10.17 110 (В) 10 км    8/8 600 м 
[Sc]
-3.7 -5.9 85 -8  1020.2  -0.4  764  313           
03 16.10.17 110 (В) 7{10}  10 км    8/8 600 м 
[Sc]
-4.7 -6 91 -10  1019.9  -0.3  764  314  -5.3         
06 16.10.17 110 (В) 7{11}  10 км    8/8 600 м 
[Sc]
-4.7 -6.3 89 -10  1019.1  -0.8  764  314           
09 16.10.17 100 (В) 7{10}  10 км    9/9 600 м 
[Sc]
-2.4 -4.6 85 -7  1017.6  -1.5  763  311           
12 16.10.17 110 (В) 9-13{13}  10 км    10/10 600 м 
[Sc]
-2.1 -5.3 79 -7  1016  -1.6  761  310           
15 16.10.17 110 (В) 11-14{15}  0200 м  ливневой снег  10/10 300 м кучево-дожд. 
[Cb cap]
-3.4 -4.5 92 -9  1013.3  -2.7  759  310    -2.1  0.6     
18 16.10.17 120 (ЮВ) 7{14}  10 км  в посл. час ливневой снег  10/10 300 м кучево-дожд. 
[Cb cap]
-2.5 -3.4 94 -7  1011  -2.2  758  309           
21 16.10.17 140 (ЮВ) 6{10}  10 км  слаб. ливневой дождь [диам. гололёда 1 мм]  10/10 300 м кучево-дожд. 
[Cb cap]
-0.5 -1.4 94 -4  1007.7  -3.3  755  305           
00 17.10.17 150 (ЮВ) 10 км  слаб. ливневой дождь  10/10 300 м кучево-дожд. 
[Cb cap]
+1 -0.1 92 -2  1005.4  2.3  753  302           
03 17.10.17 160 (Ю) 10 км  слаб. ливневой дождь  10/10 300 м кучево-дожд. 
[Cb cap]
+1.6 +0.2 90 -2  1003.2  -2.2  752  301  -3.4       
06 17.10.17 140 (ЮВ) 10 км  {ливн. осадки}  10/10 600 м 
[Sc]
+1.3 +0.2 92 -1  1002.1  -1.1  751  301           
09 17.10.17 130 (ЮВ) 10 км    10/10 600 м 
[Sc]
+1.3 -0.1 90 -2  1000.6  -1.5  750  301           
12 17.10.17 100 (В) 10 км  слаб. ливневой дождь  10/10 300 м кучево-дожд. 
[Cb cap]
+1.4 +0.3 92 -1  999.8  -0.8  749  300           
15 17.10.17 100 (В) 7-10{10}  10 км  слаб. ливневой дождь  10/10 300 м кучево-дожд. 
[Cb cap]
+1.1 +0 92 -3  998.2  -2.6  748  300    +1.7     
18 17.10.17 090 (В) 8-10{11}  10 км  {ливн. осадки}  10/10 300 м 
[Sc]
+0.6 -0.8 90 -4  996.8  -1.4  747  300           
21 17.10.17 090 (В) 9-11{11}  4000 м  слаб. дождь{туман}  10/10 300 м 
[Frnb|Ns]
+0.5 -0.1 96 -4  994.7  -2.1  745  300           
03 18.10.17 090 (В) 8-11{11}  10 км  слаб. ливневой дождь  10/10 300 м 
+1.1 +0 92 -3  990  -2.4  742  298  +0.5       
06 18.10.17 100 (В) 6{11}  10 км  слаб. ливневой дождь  10/10 300 м 
[Sc]
+1.2 +0.4 94 -2  988.2  -1.8  741  297           
09 18.10.17 100 (В) 10 км  {ливн. осадки}  10/10 300 м кучево-дожд. 
[Cb cap]
+0.8 -0.3 92 -2  986.5  -1.7  739  297           
12 18.10.17 210 (ЮЗ) 10 км  {ливн. осадки}  10/10 300 м 
[Sc]
+1.6 +0.2 90 986.1  -0.4  739  296           
15 18.10.17 150 (ЮВ) 10 км  слаб. ливневой дождь  9/9 300 м кучево-дожд. 
[Cb cap]
+0.8 -0.3 92 -1  985.9  -0.2  739  297    +2.5     
18 18.10.17 170 (Ю) 10 км  {ливн. осадки}  10/10 600 м 
[Sc]
+1.3 -0.1 90 985.6  -0.3  739  296           
Время (UTC), дата Ветер
(°,м/с) 
Видим.   Явления Облачность Т
(°С)
Тd
(°С)
f(%) Тe
(°С)
Pmin
(гПа)
dP
(гПа)
Po
(мм)
O2
(г/м3)
Тmin Tmax R s Состояние
почвы

Для получения пояснительной информации подведите курсор к названию столбца.

ПОГОДА Мыс Шведский - архив

Всё, что Вы хотите узнать о погоде Мыс Шведский - удобно и подробно!

Выберите нужную дату (начиная с 1 января 2015* года) и нажмите кнопку "Найти".
Будут отображены архивные сводки погоды по пункту Мыс Шведский, начиная с указанной даты.


Отображать данные в формате CSV (для использования в таблицах Excel)


Внимание! Наш архив погоды предназначен исключительно для личного некоммерческого использования в познавательных целях. Если Вам необходимы официальные справки о состоянии погоды (для производственных, юридических, коммерческих и т.п. целей), обращайтесь в органы Росгидромета.

*Примечание: данная дата относится к архиву по метеостанциям СССР (Россия, СНГ, Балтия).
Архив по метеостанциям Зарубежной Европы и Азии (кроме Китая) хранится 10 дней, по другим регионам земного шара (Китай, Африка, Америка, Австралия, Океания) - 1 день.

Мыс Шведский - район местоположения метеостанции


Название, широта, долгота, высота метеостанции:
Мыс Шведский 68.6°ш. 56.6°д. 4 м над ур. моря [Российская Федерация]

Дополнительная информация

В oтличие oт бoльшинства пoгoдных сайтoв мы публикуем пoдрoбную метеoинфoрмацию в детальнoм прoфессиoнальнoм фoрмате.

Характеристики температуры и влажнoсти вoздуха измеряются на высoте 2 м в тени вдали oт зданий и деревьев.
Скoрoсть ветра измеряется на высoте 10 м (на урoвне рoста челoвека скoрoсть ветра ниже в 1.5-2 раза). Если метеoстанция нахoдится в гoрoде или в лесу, тo скoрoсть ветра занижена на 2-4 м/с пo сравнению с oткрытым местoм. Скoрoсть ветра над акватoриями крупных рек и oзёр, а также на вершинах хoлмoв на 2-5 м/с выше, чем в oбычных услoвиях.
Атмoсфернoе давление в разных тoчках местнoсти мoжет значительнo oтличаться oт давления на метеoстанции, в зависимoсти oт услoвий рельефа (при пoдъёме на 10 м давление пoнижается примернo на 1 мм рт.ст.).